Location: Devore Heights
(34.2372°N, 117.4156°W)
Time: 15:08:58
(UTC+00:00)

A-11 Canister half - All Passes

Search period start: 13 September 2024 00:00
Search period end: 23 September 2024 00:00
Orbit: 1515 x 1684 km, 47.2° (Epoch: 13 September)

Date Brightness Start Highest point End Pass type
(mag) Time Alt. Az. Time Alt. Az. Time Alt. Az.
13 Sep - 01:21:04 10° SSW 01:30:03 49° SE 01:38:49 10° ENE daylight
13 Sep - 03:25:32 10° WSW 03:34:49 61° NNW 03:43:57 10° NE visible
13 Sep - 05:32:50 10° WNW 05:41:15 37° N 05:49:39 10° ENE visible
13 Sep - 07:39:09 10° NW 07:48:02 48° NNE 07:57:02 10° E visible
13 Sep - 09:44:08 10° WNW 09:53:21 71° SW 10:02:49 10° SE visible
13 Sep - 11:51:28 10° W 11:57:08 18° SW 12:02:55 10° SSW visible
14 Sep - 00:58:13 10° SSW 01:07:07 45° SE 01:15:47 10° ENE daylight
14 Sep - 03:02:27 10° WSW 03:11:47 64° NNW 03:20:59 10° NE visible
14 Sep - 05:09:43 10° WNW 05:18:09 37° N 05:26:34 10° ENE visible
14 Sep - 07:16:09 10° NW 07:24:58 47° NNE 07:33:53 10° E visible
14 Sep - 09:21:09 10° WNW 09:30:24 76° SW 09:39:51 10° SE visible
14 Sep - 11:28:07 10° W 11:34:14 20° SW 11:40:28 10° SSW visible
15 Sep - 00:35:24 10° SSW 00:44:10 42° SE 00:52:44 10° ENE daylight
15 Sep - 02:39:22 10° WSW 02:48:45 67° NNW 02:58:00 10° NE visible
15 Sep - 04:46:34 10° WNW 04:55:03 37° N 05:03:29 10° ENE visible
15 Sep - 06:53:07 10° NW 07:01:55 45° NNE 07:10:45 10° E visible
15 Sep - 08:58:09 10° NW 09:07:25 80° SW 09:16:53 10° SE visible
15 Sep - 11:04:49 10° W 11:11:19 21° SW 11:17:58 10° S visible
16 Sep - 00:12:35 10° SSW 00:21:15 39° SE 00:29:40 10° ENE daylight
16 Sep - 02:16:17 10° WSW 02:25:45 70° NNW 02:35:01 10° NE visible
16 Sep - 04:23:26 10° WNW 04:31:58 38° N 04:40:25 10° ENE visible
16 Sep - 06:30:06 10° NW 06:38:50 44° NNE 06:47:37 10° E visible
16 Sep - 08:35:10 10° NW 08:44:27 84° SW 08:53:54 10° SE visible
16 Sep - 10:41:34 10° WNW 10:48:25 23° SW 10:55:24 10° S visible
16 Sep - 23:49:49 10° SSW 23:58:19 37° SE 00:06:35 10° ENE daylight
17 Sep - 01:53:14 10° WSW 02:02:45 74° NNW 02:12:02 10° NE daylight
17 Sep - 04:00:17 10° WNW 04:08:52 39° N 04:17:22 10° ENE visible
17 Sep - 06:07:04 10° NW 06:15:46 42° NNE 06:24:29 10° E visible
17 Sep - 08:12:10 10° NW 08:21:28 89° SSW 08:30:55 10° SE visible
17 Sep - 10:18:22 10° WNW 10:25:30 25° SW 10:32:48 10° S night (unlit)
17 Sep - 23:27:03 10° S 23:35:23 34° SE 23:43:29 10° ENE daylight
18 Sep - 01:30:10 10° WSW 01:39:45 78° NNW 01:49:03 10° NE daylight
18 Sep - 03:37:09 10° WNW 03:45:46 39° NNW 03:54:19 10° NE visible
18 Sep - 05:44:02 10° NW 05:52:41 41° NNE 06:01:21 10° E visible
18 Sep - 07:49:11 10° NW 07:58:29 87° NE 08:07:55 10° SE visible
18 Sep - 09:55:11 10° WNW 10:02:36 28° SW 10:10:09 10° S night (unlit)
18 Sep - 23:04:19 10° S 23:12:27 32° SE 23:20:21 10° ENE daylight
19 Sep - 01:07:07 10° WSW 01:16:44 81° NW 01:26:06 10° NE daylight
19 Sep - 03:13:59 10° W 03:22:41 40° NNW 03:31:16 10° NE visible
19 Sep - 05:20:59 10° NW 05:29:37 40° NNE 05:38:12 10° E visible
19 Sep - 07:26:12 10° NW 07:35:30 83° NE 07:44:54 10° SE visible
19 Sep - 09:32:02 10° WNW 09:39:41 30° SW 09:47:29 10° S night (unlit)
19 Sep - 22:41:37 10° S 22:49:32 29° SE 22:57:13 10° ENE daylight
20 Sep - 00:44:05 10° SW 00:53:44 85° NW 01:03:07 10° NE daylight
20 Sep - 02:50:50 10° W 02:59:36 41° NNW 03:08:14 10° NE visible
20 Sep - 04:57:56 10° NW 05:06:31 40° NNE 05:15:05 10° E visible
20 Sep - 07:03:13 10° NW 07:12:30 79° NE 07:21:53 10° ESE visible
20 Sep - 09:08:54 10° WNW 09:16:46 32° SW 09:24:47 10° S night (unlit)
20 Sep - 22:18:57 10° S 22:26:37 27° SE 22:34:04 10° ENE daylight
21 Sep - 00:21:04 10° SW 00:30:45 90° NNW 00:40:08 10° NE daylight
21 Sep - 02:27:40 10° W 02:36:31 42° NNW 02:45:12 10° NE visible
21 Sep - 04:34:52 10° WNW 04:43:26 39° N 04:51:56 10° ENE visible
21 Sep - 06:40:14 10° NW 06:49:31 75° NNE 06:58:50 10° ESE visible
21 Sep - 08:45:47 10° WNW 08:53:51 35° SW 09:02:03 10° SSE night (unlit)
21 Sep - 21:56:18 10° S 22:03:41 25° SE 22:10:52 10° ENE daylight
21 Sep - 23:58:03 10° SW 00:07:45 86° SE 00:17:09 10° NE daylight
22 Sep - 02:04:30 10° W 02:13:26 44° NNW 02:22:11 10° NE visible
22 Sep - 04:11:48 10° WNW 04:20:20 38° N 04:28:48 10° ENE visible
22 Sep - 06:17:15 10° NW 06:26:30 72° NNE 06:35:48 10° ESE visible
22 Sep - 08:22:41 10° WNW 08:30:56 38° SW 08:39:18 10° SSE visible
22 Sep - 21:33:43 10° S 21:40:46 23° SE 21:47:38 10° E daylight
22 Sep - 23:35:03 10° SW 23:44:46 82° SE 23:54:10 10° NE daylight
